Observations
| Time | Sensor | AQI | SAQ | Temp °C | Hum % | Pres Pa | CO μg/m³ | H₂S μg/m³ | NO μg/m³ | NO₂ μg/m³ | O₃ μg/m³ | SO₂ μg/m³ | CO₂e PPM | VOC PPM | PM1 μg/m³ | PM2.5 μg/m³ | PM4 μg/m³ | PM10 μg/m³ | TPS µm |
|---|---|---|---|---|---|---|---|---|---|---|---|---|---|---|---|---|---|---|---|
| Thursday 13 August 2026 | |||||||||||||||||||
| 10:25 | Trim Patrick St | 1 | 29.2 | 54 | 70,867 | 0 | 0 | 0.78 | 13.66 | 57.62 | 13.88 | 2.86 | 7.7 | 8.47 | |||||
| 10:23 | Trim Patrick St | 1 | 29 | 54 | 71,142 | 0 | 1.95 | 0.77 | 13.77 | 58.24 | 14.34 | 2 | 6.9 | 7.59 | |||||
| 10:23 | Trim Market St | 2 | 28.2 | 57 | 57,718 | 0 | 1.2 | 0.79 | 22.84 | 64.39 | 0 | 2.14 | 4.69 | 6.12 | |||||
| 10:22 | Trim Market St | 2 | 28.2 | 56 | 57,722 | 0 | 0 | 0.79 | 13.71 | 54.45 | 0 | 1.43 | 4.2 | 5.41 | |||||
| 10:21 | Trim Market St | 2 | 28.1 | 56 | 57,722 | 0 | 0 | 0.67 | 14.04 | 59.37 | 0 | 0.71 | 3.19 | 4.7 | |||||
| 10:20 | Trim Market St | 2 | 28.1 | 56 | 57,724 | 0 | 0 | 0.65 | 13.52 | 57.49 | 0 | 1.43 | 3.7 | 4.7 | |||||
| 10:20 | Trim Patrick St | 1 | 28.8 | 54 | 71,332 | 0 | 1.11 | 0.81 | 13.69 | 57.53 | 13.56 | 4.57 | 8.4 | 9.25 | |||||
| 10:19 | Trim Market St | 2 | 28.1 | 56 | 57,726 | 0 | 0 | 0.65 | 13.55 | 56.53 | 0 | 1.43 | 4.2 | 5.41 | |||||
| 10:19 | Trim Patrick St | 1 | 28.8 | 54 | 71,344 | 0 | 1.05 | 0.81 | 13.52 | 58.95 | 13.79 | 3.71 | 8.4 | 9.24 | |||||
| 10:18 | Trim Market St | 2 | 28 | 56 | 57,725 | 0 | 0 | 0.67 | 13.55 | 53.81 | 0 | 1.43 | 4.2 | 5.41 | |||||
| 10:18 | Trim Patrick St | 1 | 28.8 | 54 | 71,360 | 0 | 3.73 | 0.76 | 13.4 | 57.53 | 14.08 | 3.71 | 8.39 | 9.23 | |||||
| 10:17 | Trim Market St | 2 | 28 | 56 | 57,724 | 0 | 0 | 0.64 | 13.68 | 59.66 | 0 | 0.71 | 4.2 | 5.41 | |||||
| 10:17 | Trim Patrick St | 1 | 28.7 | 54 | 71,326 | 0 | 0.9 | 0.83 | 13.64 | 58.11 | 13.67 | 2.86 | 8.4 | 9.25 | |||||
| 10:16 | Trim Market St | 2 | 28 | 56 | 57,727 | 0 | 0 | 0.65 | 13.36 | 46.05 | 0 | 0.71 | 3.19 | 3.99 | |||||
| 10:16 | Trim Patrick St | 1 | 28.8 | 54 | 71,246 | 0 | 1.48 | 0.8 | 13.64 | 59.67 | 13.94 | 3.71 | 8.4 | 9.25 | |||||
| 10:15 | Trim Market St | 2 | 28 | 56 | 57,727 | 0 | 0 | 0.63 | 13.53 | 59.41 | 0 | 1.43 | 3.69 | 4.7 | |||||
| 10:15 | Trim Patrick St | 1 | 28.8 | 54 | 71,179 | 0 | 1.46 | 0.83 | 13.66 | 59.76 | 13.52 | 3.71 | 8.41 | 9.25 | |||||
| 10:14 | Trim Market St | 2 | 28 | 56 | 57,728 | 0 | 0 | 0.64 | 13.47 | 56.42 | 0 | 1.43 | 3.19 | 3.99 | |||||
| 10:14 | Trim Patrick St | 1 | 28.8 | 54 | 71,112 | 0 | 0.39 | 0.8 | 13.5 | 60 | 13.97 | 3.71 | 8.42 | 9.26 | |||||
| 10:13 | Trim Market St | 2 | 28 | 56 | 57,732 | 0 | 0 | 0.65 | 13.49 | 56.9 | 0 | 1.43 | 4.21 | 5.4 | |||||